Perryton, TX

10:57 AM CST on December 15, 2017 (GMT -0600)
Perryton Ochiltree County

Weather History for KPYX - January, 2014

Change the Weather History Date:

Friday, January 3, 2014

  Actual Average Record
Temperature  
Mean Temperature 44 °F -  
Max Temperature 59 °F 45 °F 77 °F (2006)
Min Temperature 28 °F 16 °F -8 °F (1974)
Degree Days  
Heating Degree Days 22    
Moisture  
Dew Point 25 °F    
Average Humidity 56    
Maximum Humidity 77    
Minimum Humidity 30    
Precipitation  
Precipitation 0.00 in - - ()
Sea Level Pressure  
Sea Level Pressure 29.88 in    
Wind  
Wind Speed 14 mph (South)    
Max Wind Speed 24 mph    
Max Gust Speed 29 mph    
Visibility 10 miles    
Events      
Averages and records for this station are not official NWS values.
T = Trace of Precipitation, MM = Missing Value Source: NWS Daily Summary

Daily Weather History Graph

Daily Weather History Graph

Search for Another Location

Airport or City:

Trip Planner

Search our weather history database for the weather conditions in past years. The results will help you decide how hot, cold, wet, or windy it might be!

Date:

Astronomy

Jan. 03, 2014 Rise Set
Actual Time 7:55 AM CST 5:40 PM CST
Civil Twilight 7:26 AM CST 6:08 PM CST
Nautical Twilight 6:54 AM CST 6:41 PM CST
Astronomical Twilight 6:23 AM CST 7:12 PM CST
Moon 9:27 AM CST (1/3) 8:46 PM CST (1/3)
Length of Visible Light 10h 42m
Length of Day
9h 45m
Waxing Crescent, 8% of the Moon is Illuminated
Jan 3
Waxing Crescent
Jan 7
First Quarter
Jan 15
Full
Jan 23
Last Quarter
Jan 30
New

Hourly Weather History & Observations

Time (CST) Temp. Windchill Dew Point Humidity Pressure Visibility Wind Dir Wind Speed Gust Speed Precip Events Conditions
12:15 AM 30.0 °F 21.7 °F 23.0 °F 75% 30.19 in 10.0 mi South 9.2 mph - N/A   Clear
12:35 AM 29.5 °F 23.4 °F 23.2 °F 77% 30.18 in 10.0 mi South 5.8 mph - N/A   Clear
12:55 AM 30.0 °F 23.2 °F 23.7 °F 77% 30.17 in 10.0 mi South 6.9 mph - N/A   Clear
1:15 AM 30.4 °F 24.5 °F 23.5 °F 76% 30.17 in 10.0 mi South 5.8 mph - N/A   Clear
1:35 AM 30.9 °F 21.7 °F 23.5 °F 74% 30.16 in 10.0 mi South 11.5 mph - N/A   Clear
1:55 AM 31.3 °F 21.6 °F 23.4 °F 72% 30.14 in 10.0 mi South 12.7 mph - N/A   Clear
2:15 AM 31.3 °F 21.1 °F 23.4 °F 72% 30.14 in 10.0 mi South 13.8 mph - N/A   Clear
2:35 AM 31.6 °F 22.1 °F 23.4 °F 71% 30.14 in 10.0 mi South 12.7 mph - N/A   Clear
2:55 AM 32.0 °F 22.5 °F 23.0 °F 69% 30.14 in 10.0 mi South 12.7 mph - N/A   Clear
3:15 AM 31.3 °F 22.7 °F 22.8 °F 71% 30.14 in 10.0 mi South 10.4 mph - N/A   Clear
3:35 AM 30.7 °F 20.0 °F 22.6 °F 72% 30.12 in 10.0 mi South 15.0 mph - N/A   Clear
3:55 AM 30.9 °F 19.8 °F 22.3 °F 70% 30.11 in 10.0 mi South 16.1 mph - N/A   Clear
4:15 AM 30.9 °F 21.7 °F 22.1 °F 70% 30.11 in 10.0 mi South 11.5 mph - N/A   Clear
4:35 AM 29.5 °F 21.1 °F 21.9 °F 73% 30.11 in 10.0 mi SSE 9.2 mph - N/A   Clear
4:55 AM 28.9 °F 18.2 °F 22.1 °F 76% 30.09 in 10.0 mi South 13.8 mph - N/A   Clear
5:15 AM 28.9 °F 18.2 °F 22.1 °F 76% 30.08 in 10.0 mi South 13.8 mph - N/A   Clear
5:35 AM 29.5 °F 17.6 °F 21.9 °F 73% 30.06 in 10.0 mi South 17.3 mph - N/A   Clear
5:55 AM 30.9 °F 18.7 °F 22.3 °F 70% 30.04 in 10.0 mi South 19.6 mph - N/A   Clear
6:15 AM 30.4 °F 17.0 °F 22.1 °F 71% 30.03 in 10.0 mi South 23.0 mph - N/A   Clear
6:35 AM 29.8 °F 16.6 °F 21.9 °F 72% 30.03 in 10.0 mi South 21.9 mph - N/A   Clear
6:55 AM 28.9 °F 16.5 °F 21.7 °F 74% 30.02 in 10.0 mi South 18.4 mph - N/A   Clear
7:15 AM 29.1 °F 17.1 °F 22.1 °F 75% 30.02 in 10.0 mi South 17.3 mph - N/A   Clear
7:35 AM 29.7 °F 19.1 °F 22.6 °F 75% 30.01 in 10.0 mi South 13.8 mph - N/A   Clear
7:55 AM 30.2 °F 18.1 °F 23.0 °F 75% 29.99 in 10.0 mi South 18.4 mph - N/A   Clear
8:15 AM 30.6 °F 19.4 °F 22.8 °F 73% 29.99 in 10.0 mi South 16.1 mph 23.0 mph N/A   Clear
8:35 AM 30.7 °F 20.0 °F 23.4 °F 74% 29.99 in 10.0 mi South 15.0 mph - N/A   Clear
8:55 AM 32.4 °F 21.3 °F 23.9 °F 71% 29.98 in 10.0 mi South 17.3 mph 20.7 mph N/A   Clear
9:15 AM 34.2 °F 23.0 °F 24.4 °F 68% 29.97 in 10.0 mi South 19.6 mph 27.6 mph N/A   Clear
9:35 AM 35.4 °F 24.9 °F 24.4 °F 64% 29.97 in 10.0 mi South 18.4 mph 23.0 mph N/A   Clear
9:55 AM 36.9 °F 26.5 °F 24.8 °F 62% 29.96 in 10.0 mi South 19.6 mph - N/A   Clear
10:15 AM 38.1 °F 28.1 °F 25.5 °F 61% 29.95 in 10.0 mi South 19.6 mph 24.2 mph N/A   Clear
10:35 AM 39.7 °F 30.3 °F 26.1 °F 58% 29.94 in 10.0 mi South 19.6 mph 27.6 mph N/A   Clear
10:55 AM 41.5 °F 31.9 °F 25.9 °F 54% 29.93 in 10.0 mi SSW 23.0 mph 28.8 mph N/A   Clear
11:15 AM 43.7 °F 35.0 °F 26.8 °F 51% 29.92 in 10.0 mi SSW 21.9 mph - N/A   Clear
11:35 AM 44.6 °F 36.1 °F 27.0 °F 50% 29.91 in 10.0 mi SSW 21.9 mph 26.5 mph N/A   Clear
11:55 AM 45.7 °F 37.4 °F 26.6 °F 47% 29.88 in 10.0 mi SSW 23.0 mph 28.8 mph N/A   Clear
12:15 PM 47.3 °F - 27.3 °F 46% 29.87 in 10.0 mi SW 21.9 mph - N/A   Clear
12:35 PM 49.3 °F - 28.0 °F 44% 29.85 in 10.0 mi SSW 19.6 mph - N/A   Clear
12:55 PM 51.3 °F - 27.0 °F 39% 29.84 in 10.0 mi SW 21.9 mph - N/A   Clear
1:15 PM 52.5 °F - 26.8 °F 37% 29.82 in 10.0 mi SW 21.9 mph 27.6 mph N/A   Clear
1:35 PM 53.2 °F - 26.6 °F 36% 29.81 in 10.0 mi SW 19.6 mph - N/A   Clear
1:55 PM 54.5 °F - 27.0 °F 35% 29.79 in 10.0 mi SW 23.0 mph 28.8 mph N/A   Clear
2:15 PM 55.9 °F - 26.8 °F 33% 29.78 in 10.0 mi SW 20.7 mph - N/A   Clear
2:35 PM 57.2 °F - 26.4 °F 31% 29.77 in 10.0 mi SW 24.2 mph 28.8 mph N/A   Clear
2:55 PM 57.6 °F - 26.8 °F 31% 29.76 in 10.0 mi SW 19.6 mph 26.5 mph N/A   Clear
3:15 PM 58.1 °F - 26.8 °F 30% 29.75 in 10.0 mi SW 15.0 mph - N/A   Clear
3:35 PM 58.6 °F - 27.9 °F 31% 29.74 in 10.0 mi SSW 12.7 mph - N/A   Clear
3:55 PM 59.0 °F - 27.9 °F 31% 29.73 in 10.0 mi SSW 17.3 mph - N/A   Clear
4:15 PM 58.8 °F - 27.1 °F 30% 29.73 in 10.0 mi SSW 16.1 mph - N/A   Clear
4:35 PM 58.1 °F - 28.2 °F 32% 29.73 in 10.0 mi SSW 13.8 mph - N/A   Clear
4:55 PM 54.1 °F - 27.7 °F 36% 29.72 in 10.0 mi South 12.7 mph - N/A   Clear
5:15 PM 51.3 °F - 27.1 °F 39% 29.71 in 10.0 mi South 10.4 mph - N/A   Clear
5:35 PM 49.5 °F - 26.8 °F 41% 29.70 in 10.0 mi South 13.8 mph - N/A   Clear
5:55 PM 46.2 °F 40.1 °F 26.6 °F 46% 29.69 in 10.0 mi South 13.8 mph - N/A   Clear
6:15 PM 44.4 °F 38.2 °F 26.6 °F 50% 29.69 in 10.0 mi SSE 12.7 mph - N/A   Clear
6:35 PM 43.2 °F 36.2 °F 26.2 °F 51% 29.68 in 10.0 mi SSE 13.8 mph - N/A   Clear
6:55 PM 43.0 °F 35.7 °F 26.4 °F 52% 29.67 in 10.0 mi South 15.0 mph - N/A   Clear
7:15 PM 44.8 °F 38.0 °F 26.2 °F 48% 29.67 in 10.0 mi South 15.0 mph - N/A   Clear
7:35 PM 45.1 °F 38.4 °F 25.7 °F 47% 29.66 in 10.0 mi South 15.0 mph - N/A   Clear
7:55 PM 45.0 °F 38.2 °F 25.5 °F 47% 29.66 in 10.0 mi South 15.0 mph - N/A   Clear
8:15 PM 44.8 °F 37.4 °F 25.2 °F 46% 29.66 in 10.0 mi South 17.3 mph - N/A   Clear
8:35 PM 44.1 °F 37.1 °F 24.8 °F 47% 29.66 in 10.0 mi South 15.0 mph - N/A   Clear
8:55 PM 43.0 °F 35.7 °F 24.8 °F 49% 29.65 in 10.0 mi South 15.0 mph - N/A   Clear
9:15 PM 42.3 °F 34.8 °F 24.8 °F 50% 29.64 in 10.0 mi South 15.0 mph - N/A   Clear
9:35 PM 42.1 °F 34.5 °F 24.8 °F 50% 29.64 in 10.0 mi South 15.0 mph - N/A   Clear
9:55 PM 42.4 °F 34.7 °F 25.5 °F 51% 29.64 in 10.0 mi South 16.1 mph - N/A   Clear
10:15 PM 42.6 °F 36.3 °F 25.9 °F 52% 29.64 in 10.0 mi SSW 11.5 mph - N/A   Clear
10:35 PM 42.8 °F 35.4 °F 26.2 °F 52% 29.63 in 10.0 mi SSW 15.0 mph - N/A   Clear
10:55 PM 42.4 °F 35.0 °F 26.4 °F 53% 29.62 in 10.0 mi SSW 15.0 mph - N/A   Clear
11:15 PM 41.4 °F 33.6 °F 26.6 °F 56% 29.62 in 10.0 mi SSW 15.0 mph - N/A   Clear
11:35 PM 40.1 °F 32.4 °F 27.1 °F 60% 29.61 in 10.0 mi SSW 13.8 mph - N/A   Clear
11:55 PM 38.7 °F 30.9 °F 27.1 °F 63% 29.61 in 10.0 mi SSW 12.7 mph - N/A   Clear